This is the latest recevied weather packets stored in our database for station/object KC4GS-13. If no packets are shown the sender has not sent any weather packets the latest 10 day(s).
| Time | Temp. | Humidity | Pressure | Rain* | Wind** | Luminosity | Snow |
|---|---|---|---|---|---|---|---|
| 1788010169 | 23.89° C | 95% | 1022.5 hPa | 0 mm | - | 117 W/m² | - |
| 1788009862 | 23.89° C | 96% | 1022.4 hPa | 0 mm | - | 118 W/m² | - |
| 1788009560 | 23.33° C | 96% | 1022.6 hPa | 0 mm | - | 114 W/m² | - |
| 1788009255 | 23.33° C | 97% | 1022.4 hPa | 0 mm | - | 116 W/m² | - |
| 1788008950 | 23.33° C | 97% | 1022.3 hPa | 0 mm | - | 94 W/m² | - |
| 1788008647 | 23.33° C | 97% | 1022.4 hPa | 0 mm | - | 130 W/m² | - |
| 1788008344 | 22.78° C | 97% | 1022.5 hPa | 0 mm | - | 130 W/m² | - |
| 1788008042 | 22.78° C | 97% | 1022.7 hPa | 0 mm | - | 115 W/m² | - |
| 1788007741 | 22.78° C | 97% | 1022.4 hPa | 0 mm | - | 95 W/m² | - |
| 1788007436 | 22.78° C | 97% | 1022.4 hPa | 0 mm | - | 70 W/m² | - |
| 1788007135 | 22.78° C | 97% | 1022.4 hPa | 0 mm | - | 77 W/m² | - |
| 1788006834 | 22.22° C | 97% | 1022.3 hPa | 0 mm | - | 73 W/m² | - |
| 1788006529 | 22.22° C | 97% | 1022.4 hPa | 0 mm | - | 50 W/m² | - |
| 1788006224 | 22.22° C | 97% | 1022.6 hPa | 0 mm | - | 49 W/m² | - |
| 1788005922 | 21.67° C | 97% | 1022.3 hPa | 0 mm | - | 52 W/m² | - |
| 1788005618 | 21.67° C | 97% | 1022.3 hPa | 0 mm | - | 41 W/m² | - |
| 1788005317 | 21.67° C | 97% | 1022.2 hPa | 0 mm | - | 47 W/m² | - |
| 1788005015 | 21.11° C | 97% | 1022.3 hPa | 0 mm | - | 37 W/m² | - |
| 1788004714 | 21.11° C | 97% | 1022.3 hPa | 0 mm | - | 34 W/m² | - |
| 1788004404 | 21.11° C | 97% | 1022.1 hPa | 0 mm | - | 22 W/m² | - |
| 1788004098 | 20.56° C | 97% | 1022.3 hPa | 0 mm | - | 17 W/m² | - |
| 1788003797 | 20.56° C | 97% | 1022.2 hPa | 0 mm | - | 19 W/m² | - |
| 1788003492 | 20.56° C | 97% | 1022 hPa | 0 mm | - | 19 W/m² | - |
| 1788003191 | 21.11° C | 97% | 1021.9 hPa | 0 mm | - | 15 W/m² | - |
| 1788002886 | 20.56° C | 97% | 1021.7 hPa | 0 mm | - | 11 W/m² | - |
* Rain latest hour (hover to see other rain measurements)
** Current wind speed in m/s (hover to see current wind gust speed)